Time,TemperatureF,DewpointF,PressureIn,WindDirection,WindDirectionDegrees,WindSpeedMPH,WindSpeedGustMPH,Humidity,HourlyPrecipIn,Conditions,Clouds,dailyrainin,SolarRadiationWatts/m^2,SoftwareType,DateUTC
2013-12-11 00:02:00,-11.0,-18.0,-100.00,West,271,3.0,8.0,71,0.00,,,0.00,0.000000,,2013-12-11 06:02:00,
2013-12-11 00:42:00,-12.0,-19.0,-100.00,West,268,2.0,8.0,70,0.00,,,0.00,0.000000,,2013-12-11 06:42:00,
2013-12-11 00:52:00,-12.0,-19.0,-100.00,West,268,2.0,8.0,70,0.00,,,0.00,0.000000,,2013-12-11 06:52:00,
2013-12-11 01:02:00,-12.0,-19.0,-100.00,West,268,2.0,8.0,70,0.00,,,0.00,0.000000,,2013-12-11 07:02:00,
2013-12-11 01:43:00,-13.0,-20.0,-100.00,WNW,293,3.0,10.0,69,0.00,,,0.00,0.000000,,2013-12-11 07:43:00,
2013-12-11 01:52:00,-13.0,-20.0,-100.00,WNW,293,3.0,10.0,69,0.00,,,0.00,0.000000,,2013-12-11 07:52:00,
2013-12-11 02:02:00,-13.0,-20.0,-100.00,WNW,293,3.0,10.0,69,0.00,,,0.00,0.000000,,2013-12-11 08:02:00,
2013-12-11 02:42:00,-14.0,-21.0,-100.00,WNW,291,3.0,8.0,69,0.00,,,0.00,0.000000,,2013-12-11 08:42:00,
2013-12-11 02:52:00,-14.0,-21.0,-100.00,WNW,291,3.0,8.0,69,0.00,,,0.00,0.000000,,2013-12-11 08:52:00,
2013-12-11 03:02:00,-14.0,-21.0,-100.00,WNW,291,3.0,8.0,69,0.00,,,0.00,0.000000,,2013-12-11 09:02:00,
2013-12-11 03:43:00,-15.0,-22.0,-100.00,WNW,301,3.0,7.0,69,0.00,,,0.00,0.000000,,2013-12-11 09:43:00,
2013-12-11 03:54:00,-15.0,-22.0,-100.00,WNW,301,3.0,7.0,69,0.00,,,0.00,0.000000,,2013-12-11 09:54:00,
2013-12-11 04:03:00,-15.0,-22.0,-100.00,WNW,301,3.0,7.0,69,0.00,,,0.00,0.000000,,2013-12-11 10:03:00,
2013-12-11 04:43:00,-16.0,-23.0,-100.00,WNW,300,3.0,9.0,68,0.00,,,0.00,0.000000,,2013-12-11 10:43:00,
2013-12-11 04:53:00,-16.0,-23.0,-100.00,WNW,300,3.0,9.0,68,0.00,,,0.00,0.000000,,2013-12-11 10:53:00,
2013-12-11 05:03:00,-16.0,-23.0,-100.00,WNW,300,3.0,9.0,68,0.00,,,0.00,0.000000,,2013-12-11 11:03:00,
2013-12-11 05:42:00,-18.0,-25.0,-100.00,West,280,2.0,7.0,68,0.00,,,0.00,0.000000,,2013-12-11 11:42:00,
2013-12-11 05:53:00,-18.0,-25.0,-100.00,West,280,2.0,7.0,68,0.00,,,0.00,0.000000,,2013-12-11 11:53:00,
2013-12-11 06:02:00,-18.0,-25.0,-100.00,West,280,2.0,7.0,68,0.00,,,0.00,0.000000,,2013-12-11 12:02:00,
2013-12-11 06:42:00,-18.0,-26.0,-100.00,West,268,3.0,6.0,67,0.00,,,-99.99,0.000000,,2013-12-11 12:42:00,
2013-12-11 06:52:00,-18.0,-26.0,-100.00,West,268,3.0,6.0,67,0.00,,,-99.99,0.000000,,2013-12-11 12:52:00,
2013-12-11 07:02:00,-18.0,-26.0,-100.00,West,268,3.0,6.0,67,0.00,,,-99.99,0.000000,,2013-12-11 13:02:00,
2013-12-11 07:42:00,-19.0,-27.0,-100.00,West,278,2.0,7.0,67,0.00,,,0.00,0.000000,,2013-12-11 13:42:00,
2013-12-11 07:52:00,-19.0,-27.0,-100.00,West,278,2.0,7.0,67,0.00,,,0.00,0.000000,,2013-12-11 13:52:00,
2013-12-11 08:02:00,-19.0,-27.0,-100.00,West,278,2.0,7.0,67,0.00,,,0.00,0.000000,,2013-12-11 14:02:00,
2013-12-11 08:42:00,-19.0,-27.0,-100.00,West,262,3.0,5.0,67,0.00,,,-99.99,1.000000,,2013-12-11 14:42:00,
2013-12-11 08:52:00,-19.0,-27.0,-100.00,West,262,3.0,5.0,67,0.00,,,-99.99,1.000000,,2013-12-11 14:52:00,
2013-12-11 09:02:00,-19.0,-27.0,-100.00,West,262,3.0,5.0,67,0.00,,,-99.99,1.000000,,2013-12-11 15:02:00,
2013-12-11 09:43:00,-17.0,-25.0,-100.00,West,264,4.0,7.0,66,0.00,,,0.00,14.000000,,2013-12-11 15:43:00,
2013-12-11 09:54:00,-17.0,-25.0,-100.00,West,264,4.0,7.0,66,0.00,,,0.00,14.000000,,2013-12-11 15:54:00,
2013-12-11 10:04:00,-17.0,-25.0,-100.00,West,264,4.0,7.0,66,0.00,,,0.00,14.000000,,2013-12-11 16:04:00,
2013-12-11 10:53:00,-8.0,-18.0,-100.00,WSW,258,5.0,8.0,60,0.00,,,0.00,88.000000,,2013-12-11 16:53:00,
2013-12-11 11:02:00,-8.0,-18.0,-100.00,WSW,258,5.0,8.0,60,0.00,,,0.00,88.000000,,2013-12-11 17:02:00,
2013-12-11 11:43:00,-4.0,-16.0,-100.00,West,268,5.0,9.0,56,0.00,,,0.00,206.000000,,2013-12-11 17:43:00,
2013-12-11 11:52:00,-4.0,-16.0,-100.00,West,268,5.0,9.0,56,0.00,,,0.00,206.000000,,2013-12-11 17:52:00,
2013-12-11 12:02:00,-4.0,-16.0,-100.00,West,268,5.0,9.0,56,0.00,,,0.00,206.000000,,2013-12-11 18:02:00,
2013-12-11 12:43:00,-2.0,-15.0,-100.00,WSW,253,7.0,12.0,52,0.00,,,0.00,258.000000,,2013-12-11 18:43:00,
2013-12-11 12:52:00,-2.0,-15.0,-100.00,WSW,253,7.0,12.0,52,0.00,,,0.00,258.000000,,2013-12-11 18:52:00,
2013-12-11 13:02:00,-2.0,-15.0,-100.00,WSW,253,7.0,12.0,52,0.00,,,0.00,258.000000,,2013-12-11 19:02:00,
2013-12-11 13:42:00,-2.0,-16.0,-100.00,WSW,243,6.0,12.0,50,0.00,,,0.00,242.000000,,2013-12-11 19:42:00,
2013-12-11 13:52:00,-2.0,-16.0,-100.00,WSW,243,6.0,12.0,50,0.00,,,0.00,242.000000,,2013-12-11 19:52:00,
2013-12-11 14:02:00,-2.0,-16.0,-100.00,WSW,243,6.0,12.0,50,0.00,,,0.00,242.000000,,2013-12-11 20:02:00,
2013-12-11 14:43:00,0.0,-16.0,-100.00,West,260,6.0,11.0,47,0.00,,,-99.99,219.000000,,2013-12-11 20:43:00,
2013-12-11 14:52:00,0.0,-16.0,-100.00,West,260,6.0,11.0,47,0.00,,,-99.99,219.000000,,2013-12-11 20:52:00,
2013-12-11 15:02:00,0.0,-16.0,-100.00,West,260,6.0,11.0,47,0.00,,,-99.99,219.000000,,2013-12-11 21:02:00,
2013-12-11 15:43:00,-1.0,-16.0,-100.00,WSW,239,7.0,13.0,49,0.00,,,0.00,174.000000,,2013-12-11 21:43:00,
2013-12-11 15:53:00,-1.0,-16.0,-100.00,WSW,239,7.0,13.0,49,0.00,,,0.00,174.000000,,2013-12-11 21:53:00,
2013-12-11 16:03:00,-1.0,-16.0,-100.00,WSW,239,7.0,13.0,49,0.00,,,0.00,174.000000,,2013-12-11 22:03:00,
2013-12-11 16:42:00,-5.0,-16.0,-100.00,SW,232,4.0,11.0,58,0.00,,,0.00,56.000000,,2013-12-11 22:42:00,
2013-12-11 16:53:00,-5.0,-16.0,-100.00,SW,232,4.0,11.0,58,0.00,,,0.00,56.000000,,2013-12-11 22:53:00,
2013-12-11 17:02:00,-5.0,-16.0,-100.00,SW,232,4.0,11.0,58,0.00,,,0.00,56.000000,,2013-12-11 23:02:00,
2013-12-11 17:43:00,-8.0,-17.0,-100.00,SW,228,4.0,7.0,64,0.00,,,0.00,2.000000,,2013-12-11 23:43:00,
2013-12-11 17:52:00,-8.0,-17.0,-100.00,SW,228,4.0,7.0,64,0.00,,,0.00,2.000000,,2013-12-11 23:52:00,
2013-12-11 18:02:00,-8.0,-17.0,-100.00,SW,228,4.0,7.0,64,0.00,,,0.00,2.000000,,2013-12-12 00:02:00,
2013-12-11 18:42:00,-9.0,-18.0,-100.00,SSW,211,3.0,8.0,65,0.00,,,0.00,0.000000,,2013-12-12 00:42:00,
2013-12-11 18:52:00,-9.0,-18.0,-100.00,SSW,211,3.0,8.0,65,0.00,,,0.00,0.000000,,2013-12-12 00:52:00,
2013-12-11 19:01:00,-9.0,-18.0,-100.00,SSW,211,3.0,8.0,65,0.00,,,0.00,0.000000,,2013-12-12 01:01:00,
2013-12-11 19:42:00,-8.0,-17.0,-100.00,SW,232,5.0,9.0,64,0.00,,,0.00,0.000000,,2013-12-12 01:42:00,
2013-12-11 19:52:00,-8.0,-17.0,-100.00,SW,232,5.0,9.0,64,0.00,,,0.00,0.000000,,2013-12-12 01:52:00,
2013-12-11 20:01:00,-8.0,-17.0,-100.00,SW,232,5.0,9.0,64,0.00,,,0.00,0.000000,,2013-12-12 02:01:00,
2013-12-11 20:52:00,-8.0,-17.0,-100.00,SW,225,5.0,11.0,65,0.00,,,0.00,0.000000,,2013-12-12 02:52:00,
2013-12-11 21:02:00,-8.0,-17.0,-100.00,SW,225,5.0,11.0,65,0.00,,,0.00,0.000000,,2013-12-12 03:02:00,
2013-12-11 21:44:00,-7.0,-15.0,-100.00,SW,227,5.0,9.0,66,0.00,,,0.00,0.000000,,2013-12-12 03:44:00,
2013-12-11 21:53:00,-7.0,-15.0,-100.00,SW,227,5.0,9.0,66,0.00,,,0.00,0.000000,,2013-12-12 03:53:00,
2013-12-11 22:03:00,-7.0,-15.0,-100.00,SW,227,5.0,9.0,66,0.00,,,0.00,0.000000,,2013-12-12 04:03:00,
2013-12-11 22:43:00,-7.0,-14.0,-100.00,SW,229,3.0,11.0,69,0.00,,,0.00,0.000000,,2013-12-12 04:43:00,
2013-12-11 22:53:00,-7.0,-14.0,-100.00,SW,229,3.0,11.0,69,0.00,,,0.00,0.000000,,2013-12-12 04:53:00,
2013-12-11 23:02:00,-7.0,-14.0,-100.00,SW,229,3.0,11.0,69,0.00,,,0.00,0.000000,,2013-12-12 05:02:00,
2013-12-11 23:43:00,-6.0,-13.0,-100.00,SW,219,4.0,9.0,71,0.00,,,0.00,0.000000,,2013-12-12 05:43:00,
2013-12-11 23:53:00,-6.0,-13.0,-100.00,SW,219,4.0,9.0,71,0.00,,,0.00,0.000000,,2013-12-12 05:53:00,